Вернуться в каталог

ONEWEB-0151

АктивенСвязьPO
NORAD 48066·PAYLOAD·🇬🇧 United Kingdom

Запущен Mar 25, 2021 с Vostochny Cosmodrome

Loading…

Ближайшие Пролёты (ближайшие 24 часа)

TLE

СвежийSource: CelesTrak SupGP

Эпоха: Sep 14, 2026, 23:16 UTC

1 48066C 21025AA  26257.96958751  .00003562  00000+0  97654-2 0  2571
2 48066  87.8925 302.3602 0001878  93.1522 302.7603 13.13467036    13

Отслеживайте ONEWEB-0151 в реальном времени с AllMySat

Download on the App Store